THORAD AGENA D DEB, 42518

Orbit data source: Space-Track

THORAD AGENA D DEB, 42518 is space debris in SSO originally from a launch on Wed, 08 Apr 1970 UTC launched from the Air Force Western Test Range (AFWTR). Debris objects in space refer to the collection of defunct objects orbiting the Earth. Examples of debris include non-operational satellites, rocket bodies, and fragments generated from explosions, collisions, or faulty payload assembly.

Loading next visibility...
Identifier
42518, 1970-025RY
Orbit
SSO
Country
Flag of USUS
Related business
Manufacturer
Unknown
Mission
Spacecraft
Bus & Motor
Unknown
Mass
Unknown
Launch date (UTC)
1970-04-08 (56 years ago)
Launch vehicle
Unknown
Launch site
Air Force Western Test Range (AFWTR)
Object type
Payload
Rocket body
Debris
Shape & HBR
Unknown shape, 0.1 m
Radar Cross Section
Small (<0.1 m²)

Expand to show TLE details & history
Last TLE update: 2 days ago

TLE from 2 days ago
0 THORAD AGENA D DEB
1 42518U 70025RY  26124.37260726  .00007158  00000-0  46561-2 0  9997
2 42518 100.4191 177.5938 0061563 246.5058 112.9625 14.01912101287192
Epoch: 2026-05-04T08:56Z
TLE epoch observation values (Epoch: 2026-05-04T08:56:33.267Z)
Latitude
-0°
Longitude
-178.80756°
Altitude
907.697 km
Speed
7.389 km/s
True Right ascension
11h 50m 22s
True Declination
0° 00' 00"
Sunlit
Object was in full shadow at epoch
Visualization orbit readout
Latitude
Unknown
Longitude
Unknown
Altitude
Unknown
Speed
Unknown
Apparent Right ascension
Unknown
Apparent Declination
Unknown
Sunlit
N/A
Visualization observer readout
Local Sidereal Time
21:55:54
Azimuth
Unknown
Elevation
Unknown
Doppler factor
Unknown
Orbital elements
Apogee altitude
929.164 km
Perigee altitude
839.742 km
Semi-major axis
7,262.59 km
Eccentricity
0.00616
Inclination
100.4191°
RAAN
177.5938°
Arg. of periapsis
246.5058°
True anomaly
113.6101°
Mean anomaly
112.9625°
Eccentric anomaly
113.2865°
Mean motion
3.50676 °/min
Orbital period
102.66 mins
BSTAR
0.0046561
Loading maneuver chart data...
Computing Atmospheric mass density...

Documentation

Showing up to 5 results
|